Location: Bogis-Bossey
(46.3500°N, 6.1667°E)
Time: 21:47:53
(UTC+00:00)

USA 238 DEB - Visible Passes

Search period start: 30 January 2023 00:00
Search period end: 09 February 2023 00:00
Orbit: 963 x 1249 km, 63.4° (Epoch: 26 January)

Date Brightness Start Highest point End Pass type
(mag) Time Alt. Az. Time Alt. Az. Time Alt. Az.
30 Jan 6.2 02:04:03 14° NNE 02:04:03 14° NNE 02:04:54 10° NNE visible
30 Jan 5.3 03:51:28 20° N 03:51:28 20° N 03:56:28 10° NE visible
30 Jan 5.4 05:39:28 10° NNW 05:44:56 23° NNE 05:50:40 10° ENE visible
31 Jan 5.6 03:07:57 20° N 03:07:57 20° N 03:11:14 10° NNE visible
31 Jan 5.5 04:55:22 13° NNW 04:59:21 21° N 05:04:39 10° ENE visible
01 Feb 5.9 02:24:25 16° NNE 02:24:25 16° NNE 02:26:10 10° NNE visible
01 Feb 5.4 04:11:50 18° NNW 04:13:43 19° N 04:18:46 10° NE visible
01 Feb 5.2 06:00:49 10° NNW 06:07:04 31° NNE 06:13:39 10° E visible
02 Feb 6.3 01:40:52 11° NNE 01:40:52 11° NNE 01:41:14 10° NNE visible
02 Feb 5.5 03:28:18 20° N 03:28:18 20° N 03:33:07 10° NE visible
02 Feb 5.4 05:15:53 10° NNW 05:21:39 26° NNE 05:27:41 10° ENE visible
03 Feb 5.7 02:44:45 18° NNE 02:44:45 18° NNE 02:47:44 10° NE visible
03 Feb 5.5 04:32:10 14° NNW 04:36:07 22° NNE 04:41:38 10° ENE visible
03 Feb 4.7 06:21:58 10° NNW 06:28:54 47° NE 06:36:13 10° ESE visible
04 Feb 6.1 02:01:13 15° NNE 02:01:13 15° NNE 02:02:35 10° NNE visible
04 Feb 5.5 03:48:39 18° NNW 03:50:30 20° N 03:55:40 10° NE visible
04 Feb 5.1 05:37:08 10° NNW 05:43:40 36° NNE 05:50:33 10° E visible
05 Feb 5.6 03:05:06 19° N 03:05:06 19° N 03:09:52 10° NE visible
05 Feb 5.3 04:52:31 11° NNW 04:58:19 29° NNE 05:04:40 10° E visible
06 Feb 5.9 02:21:34 17° NNE 02:21:34 17° NNE 02:24:20 10° NE visible
06 Feb 5.5 04:09:00 16° NNW 04:12:50 24° NNE 04:18:39 10° ENE visible
06 Feb 4.5 05:58:15 10° NW 06:05:22 56° NE 06:12:53 10° ESE visible
07 Feb 6.2 01:38:03 13° NNE 01:38:03 13° NNE 01:39:03 10° NNE visible
07 Feb 5.5 03:25:28 19° N 03:27:16 21° NNE 03:32:38 10° ENE visible
07 Feb 4.9 05:13:26 10° NNW 05:20:14 42° NE 05:27:22 10° ESE visible
08 Feb 5.7 02:41:58 19° N 02:41:58 19° N 02:46:43 10° NE visible
08 Feb 5.2 04:29:23 13° NNW 04:34:56 33° NNE 04:41:37 10° E visible
